Weather History for KGDB - October, 2012

Change the Weather History Date:

Wednesday, October 10, 2012

  Actual Average (KMVE) Record (KMVE)
Temperature  
Mean Temperature 40 °F -  
Max Temperature 57 °F 63 °F 90 °F (1980)
Min Temperature 24 °F 36 °F 17 °F (1970)
Degree Days  
Heating Degree Days 24    
Moisture  
Dew Point 24 °F    
Average Humidity 52    
Maximum Humidity 90    
Minimum Humidity 24    
Precipitation  
Precipitation 0.00 in - - ()
Sea Level Pressure  
Sea Level Pressure 30.02 in    
Wind  
Wind Speed 8 mph (SW)    
Max Wind Speed 18 mph    
Max Gust Speed 23 mph    
Visibility 10 miles    
Events      
Averages and records for this station are not official NWS values.
T = Trace of Precipitation, MM = Missing Value Source: NWS Daily Summary

Daily Weather History Graph

Daily Weather History Graph

Search for Another Location

Airport or City:

Trip Planner

Search our weather history database for the weather conditions in past years. The results will help you decide how hot, cold, wet, or windy it might be!

Date:

Astronomy

Oct. 10, 2012 Rise Set
Actual Time 7:31 AM CDT 6:45 PM CDT
Civil Twilight 7:02 AM CDT 7:14 PM CDT
Nautical Twilight 6:28 AM CDT 7:48 PM CDT
Astronomical Twilight 5:54 AM CDT 8:22 PM CDT
Moon 1:56 AM CDT (10/10) 3:59 PM CDT (10/10)
Length of Visible Light 12h 12m
Length of Day
11h 13m
Waning Crescent, 27% of the Moon is Illuminated
Oct 10
Waning Crescent
Oct 15
New
Oct 21
First Quarter
Oct 29
Full
Nov 6
Last Quarter

Hourly Weather History & Observations

Time (CDT) Temp. Windchill Dew Point Humidity Pressure Visibility Wind Dir Wind Speed Gust Speed Precip Events Conditions
12:12 AM 36.5 °F 31.8 °F 22.8 °F 58% 30.05 in 10.0 mi WSW 5.8 mph - N/A   Overcast
12:32 AM 36.5 °F 31.0 °F 23.0 °F 58% 30.06 in 10.0 mi WSW 6.9 mph - N/A   Overcast
12:52 AM 36.5 °F 31.8 °F 23.4 °F 59% 30.06 in 10.0 mi WSW 5.8 mph - N/A   Overcast
1:12 AM 36.0 °F 31.1 °F 23.4 °F 60% 30.06 in 10.0 mi WSW 5.8 mph - N/A   Overcast
1:32 AM 36.3 °F 31.6 °F 23.9 °F 61% 30.06 in 10.0 mi WSW 5.8 mph - N/A   Overcast
1:52 AM 34.9 °F 30.8 °F 23.5 °F 63% 30.06 in 10.0 mi WSW 4.6 mph - N/A   Overcast
2:12 AM 33.6 °F 28.4 °F 23.0 °F 65% 30.06 in 10.0 mi West 5.8 mph - N/A   Mostly Cloudy
2:32 AM 31.5 °F 24.9 °F 22.1 °F 68% 30.06 in 10.0 mi West 6.9 mph - N/A   Scattered Clouds
2:52 AM 30.4 °F 22.9 °F 21.6 °F 70% 30.07 in 10.0 mi West 8.1 mph - N/A   Clear
3:12 AM 30.0 °F 22.4 °F 21.7 °F 71% 30.07 in 10.0 mi West 8.1 mph - N/A   Clear
3:32 AM 29.3 °F 22.3 °F 21.7 °F 73% 30.07 in 10.0 mi West 6.9 mph - N/A   Scattered Clouds
3:52 AM 29.5 °F 23.4 °F 22.6 °F 76% 30.07 in 10.0 mi West 5.8 mph - N/A   Scattered Clouds
4:12 AM 29.3 °F 22.3 °F 23.4 °F 78% 30.07 in 10.0 mi West 6.9 mph - N/A   Clear
4:32 AM 28.2 °F 21.0 °F 22.8 °F 80% 30.07 in 10.0 mi West 6.9 mph - N/A   Clear
4:52 AM 27.0 °F 20.5 °F 22.3 °F 83% 30.08 in 10.0 mi West 5.8 mph - N/A   Clear
5:12 AM 26.4 °F 18.9 °F 22.5 °F 85% 30.09 in 10.0 mi West 6.9 mph - N/A   Clear
5:32 AM 27.3 °F 20.9 °F 23.4 °F 85% 30.09 in 10.0 mi West 5.8 mph - N/A   Clear
5:52 AM 26.6 °F 20.0 °F 23.0 °F 86% 30.09 in 10.0 mi West 5.8 mph - N/A   Clear
6:12 AM 24.6 °F 17.7 °F 21.7 °F 89% 30.10 in 10.0 mi WSW 5.8 mph - N/A   Clear
6:32 AM 24.6 °F 20.3 °F 21.7 °F 89% 30.10 in 10.0 mi WSW 3.5 mph - N/A   Clear
6:52 AM 24.8 °F 16.9 °F 21.9 °F 89% 30.10 in 10.0 mi WSW 6.9 mph - N/A   Clear
7:32 AM 25.0 °F 19.3 °F 22.1 °F 89% 30.11 in 10.0 mi WSW 4.6 mph - N/A   Clear
7:52 AM 24.6 °F 17.7 °F 21.9 °F 89% 30.11 in 7.0 mi WSW 5.8 mph - N/A   Clear
8:12 AM 27.5 °F 21.1 °F 24.8 °F 90% 30.12 in 7.0 mi SSW 5.8 mph - N/A   Clear
8:32 AM 30.2 °F 24.3 °F 26.2 °F 85% 30.12 in 7.0 mi SW 5.8 mph - N/A   Scattered Clouds
8:52 AM 31.8 °F 26.2 °F 27.0 °F 82% 30.13 in 10.0 mi SSW 5.8 mph - N/A   Scattered Clouds
9:12 AM 34.2 °F 27.5 °F 28.0 °F 78% 30.13 in 10.0 mi SSW 8.1 mph - N/A   Clear
9:32 AM 36.3 °F 30.1 °F 28.4 °F 73% 30.13 in 10.0 mi SW 8.1 mph - N/A   Scattered Clouds
9:52 AM 37.0 °F 30.4 °F 28.4 °F 71% 30.13 in 10.0 mi SW 9.2 mph - N/A   Overcast
10:12 AM 40.3 °F 35.5 °F 28.6 °F 63% 30.12 in 10.0 mi SW 6.9 mph - N/A   Scattered Clouds
10:32 AM 41.4 °F 35.7 °F 28.6 °F 60% 30.12 in 10.0 mi SW 9.2 mph - N/A   Clear
10:52 AM 44.2 °F 39.2 °F 28.6 °F 54% 30.12 in 10.0 mi WSW 9.2 mph - N/A   Clear
11:12 AM 46.8 °F - 27.5 °F 47% 30.11 in 10.0 mi WSW 11.5 mph - N/A   Clear
11:32 AM 48.0 °F - 26.4 °F 43% 30.11 in 10.0 mi SW 11.5 mph 17.3 mph N/A   Clear
11:52 AM 49.5 °F - 24.3 °F 37% 30.10 in 10.0 mi SW 13.8 mph 17.3 mph N/A   Scattered Clouds
12:12 PM 50.5 °F - 22.5 °F 33% 30.10 in 10.0 mi WSW 13.8 mph 18.4 mph N/A   Scattered Clouds
12:32 PM 51.8 °F - 21.2 °F 30% 30.09 in 10.0 mi WSW 11.5 mph 18.4 mph N/A   Clear
12:52 PM 52.7 °F - 20.8 °F 29% 30.09 in 10.0 mi WSW 13.8 mph 17.3 mph N/A   Scattered Clouds
1:12 PM 52.5 °F - 19.6 °F 27% 30.08 in 10.0 mi SW 18.4 mph 21.9 mph N/A   Clear
1:32 PM 54.0 °F - 20.7 °F 27% 30.07 in 10.0 mi WSW 13.8 mph 21.9 mph N/A   Scattered Clouds
1:52 PM 53.1 °F - 20.3 °F 28% 30.06 in 10.0 mi SW 15.0 mph 19.6 mph N/A   Scattered Clouds
2:12 PM 54.0 °F - 21.0 °F 28% 30.05 in 10.0 mi WSW 11.5 mph 21.9 mph N/A   Scattered Clouds
2:32 PM 54.7 °F - 21.2 °F 27% 30.03 in 10.0 mi SW 9.2 mph - N/A   Mostly Cloudy
2:52 PM 55.4 °F - 21.0 °F 26% 30.03 in 10.0 mi SW 9.2 mph - N/A   Mostly Cloudy
3:12 PM 56.3 °F - 19.6 °F 24% 30.01 in 10.0 mi WSW 13.8 mph 18.4 mph N/A   Mostly Cloudy
3:32 PM 55.8 °F - 19.9 °F 25% 30.01 in 10.0 mi WSW 12.7 mph 17.3 mph N/A   Mostly Cloudy
3:52 PM 55.8 °F - 19.6 °F 24% 30.00 in 10.0 mi WSW 11.5 mph 17.3 mph N/A   Mostly Cloudy
4:12 PM 55.2 °F - 19.6 °F 25% 29.99 in 10.0 mi SW 13.8 mph - N/A   Mostly Cloudy
4:32 PM 56.8 °F - 20.5 °F 24% 29.97 in 10.0 mi SW 11.5 mph - N/A   Scattered Clouds
4:52 PM 56.3 °F - 20.5 °F 25% 29.96 in 10.0 mi WSW 11.5 mph - N/A   Scattered Clouds
5:12 PM 56.5 °F - 20.3 °F 24% 29.94 in 10.0 mi SW 10.4 mph - N/A   Scattered Clouds
5:32 PM 56.5 °F - 20.7 °F 25% 29.94 in 10.0 mi South 8.1 mph - N/A   Mostly Cloudy
5:52 PM 56.3 °F - 21.6 °F 26% 29.93 in 10.0 mi SSW 6.9 mph - N/A   Mostly Cloudy
6:12 PM 57.2 °F - 21.7 °F 25% 29.93 in 10.0 mi South 3.5 mph - N/A   Scattered Clouds
6:32 PM 53.2 °F - 21.7 °F 29% 29.92 in 7.0 mi South 8.1 mph - N/A   Scattered Clouds
6:52 PM 50.5 °F - 21.7 °F 32% 29.91 in 7.0 mi SSE 8.1 mph - N/A   Scattered Clouds
7:12 PM 49.1 °F - 22.6 °F 35% 29.91 in 5.0 mi SE 6.9 mph - N/A   Haze
7:32 PM 47.8 °F - 23.5 °F 39% 29.90 in 10.0 mi SSE 10.4 mph - N/A   Scattered Clouds
7:52 PM 48.7 °F - 24.6 °F 39% 29.89 in 10.0 mi SSE 10.4 mph - N/A   Scattered Clouds
8:12 PM 49.6 °F - 25.2 °F 38% 29.88 in 10.0 mi South 10.4 mph - N/A   Clear
8:32 PM 49.3 °F - 25.3 °F 39% 29.88 in 10.0 mi SSE 10.4 mph - N/A   Scattered Clouds
8:52 PM 49.3 °F - 25.7 °F 40% 29.87 in 10.0 mi SSE 9.2 mph - N/A   Clear
9:12 PM 48.9 °F - 26.1 °F 41% 29.86 in 10.0 mi SSE 11.5 mph - N/A   Clear
9:32 PM 48.7 °F - 26.4 °F 42% 29.86 in 10.0 mi SSE 10.4 mph - N/A   Clear
9:52 PM 48.7 °F - 27.1 °F 43% 29.85 in 7.0 mi SSE 10.4 mph - N/A   Mostly Cloudy
10:12 PM 49.1 °F - 27.5 °F 43% 29.84 in 10.0 mi South 11.5 mph - N/A   Overcast
10:32 PM 52.2 °F - 28.8 °F 41% 29.83 in 10.0 mi South 15.0 mph - N/A   Overcast
10:52 PM 53.2 °F - 28.8 °F 39% 29.82 in 10.0 mi South 16.1 mph - N/A   Overcast
11:12 PM 54.7 °F - 29.1 °F 38% 29.81 in 10.0 mi South 16.1 mph - N/A   Scattered Clouds
11:32 PM 55.0 °F - 29.1 °F 37% 29.81 in 10.0 mi South 18.4 mph 23.0 mph N/A   Scattered Clouds
11:52 PM 54.5 °F - 29.5 °F 38% 29.80 in 10.0 mi SSW 16.1 mph 21.9 mph N/A   Clear